Vorticity
7 6 6 5 3 2 4 5 5 4 4 3 4 4 3 7 7 7 8 10 10 9 10 10 4 3 3 3 4 5 7 6
5 7 6 6 5 5 4 2 4 6 4 6 4 6 9 3 4 7 1 4 6 10 9 10 9 5 5 3 4 4 4 2
5 3 4 5 6 8 8 5 5 5 3 4 4 3 6 7 8 5 4 5 6 8 11 9 10 5 6 5 5 5 4 2
5 9 13 6 3 4 7 7 6 6 6 6 6 5 5 6 5 1 5 6 7 9 10 14 11 9 9 8 8 8 5 3
1 7 7 9 8 5 3 3 6 7 5 5 6 5 9 7 4 2 5 4 6 -1 2 -1 0 1 3 8 8 9 8 5
14 10 4 7 7 10 1 10 6 4 4 4 3 5 5 4 2 2 1 4 -0 7 3 2 8 6 4 8 11 10 7 7
5 6 8 9 8 7 9 5 8 12 10 3 4 4 7 6 4 4 1 6 4 7 4 -0 8 8 -4 10 11 9 9 8
9 8 6 5 8 6 5 9 10 -2 8 11 6 3 4 5 6 5 4 7 7 4 5 3 -0 9 1 2 3 -1 4 7
6 9 7 6 7 9 6 3 5 10 4 9 21 3 2 4 4 5 4 5 7 5 8 4 3 2 7 2 3 5 6 8
14 16 12 10 7 4 8 8 4 5 10 5 8 -8 10 1 4 6 5 7 5 4 5 8 5 3 6 4 1 3 4 7
4 8 10 11 11 11 8 7 9 6 2 12 6 11 19 -14 -2 3 4 6 5 3 5 4 4 4 5 4 1 3 4 4
15 10 11 5 7 9 8 9 9 8 7 1 2 3 18 -34 5 3 4 5 7 5 4 4 3 5 3 4 5 3 3 2
8 7 11 8 8 5 7 4 7 6 11 8 3 3 13 -31 75 -4 -6 4 5 5 4 5 5 4 5 3 5 4 6 0
31 41 30 33 29 42 39 36 1 6 4 9 8 3 6 22 -26 41 -28 5 2 5 4 6 5 5 4 7 3 4 5 4
4 -3 -1 30 23 9 15 26 70 10 4 4 7 10 8 22 -22 -8 38 0 0 1 4 8 3 5 4 4 3 1 7 3
-3 -0 16 9 12 24 10 13 -1 71 14 3 2 7 7 1 3 -4 -7 19 6 3 1 4 6 5 3 5 4 3 5 3
-8 24 25 11 7 28 8 2 32 15 67 15 3 2 7 4 3 5 18 6 -3 1 3 -0 3 6 6 4 4 3 3 1
19 27 4 4 8 26 20 -23 62 18 9 65 10 3 3 11 6 9 28 77 -23 -11 5 4 4 6 5 5 3 5 5 3
10 12 18 19 10 2 32 46 14 52 29 -1 57 9 2 4 7 6 14 -36 104 21 2 2 3 2 7 3 4 3 4 3
16 14 -6 -6 26 -2 4 32 17 66 8 16 33 28 3 2 9 4 0 -18 -37 20 2 -0 2 2 3 4 4 4 2 2
Height
5840 5840 5840 5841 5841 5842 5843 5843 5844 5844 5844 5844 5843 5843 5843 5843 5843 5843 5841 5840 5838 5837 5836 5836 5835 5835 5836 5836 5835 5834 5831 5830
5832 5832 5832 5833 5834 5834 5834 5836 5837 5837 5838 5838 5838 5838 5839 5839 5839 5840 5839 5837 5836 5834 5833 5832 5832 5832 5832 5831 5832 5832 5830 5828
5824 5824 5824 5825 5826 5826 5826 5827 5828 5830 5832 5832 5833 5833 5834 5834 5835 5835 5835 5835 5833 5832 5830 5829 5828 5828 5828 5828 5828 5828 5827 5827
5820 5820 5821 5820 5820 5821 5822 5822 5822 5823 5824 5825 5827 5828 5828 5829 5829 5829 5830 5830 5829 5828 5827 5825 5825 5824 5824 5824 5824 5824 5824 5824
5811 5813 5812 5812 5815 5813 5813 5814 5815 5816 5817 5818 5819 5819 5821 5822 5823 5824 5824 5824 5824 5824 5823 5822 5820 5819 5819 5819 5820 5819 5819 5819
5799 5800 5803 5803 5803 5804 5806 5805 5805 5805 5808 5809 5810 5813 5814 5815 5817 5818 5819 5819 5819 5819 5819 5819 5818 5815 5815 5815 5815 5815 5814 5813
5788 5787 5789 5792 5793 5793 5794 5796 5797 5796 5797 5800 5802 5804 5807 5808 5810 5811 5813 5813 5814 5814 5815 5815 5815 5814 5812 5811 5812 5812 5811 5810
5779 5779 5778 5779 5782 5783 5783 5783 5785 5787 5788 5788 5792 5795 5797 5799 5800 5802 5804 5806 5807 5807 5809 5810 5811 5810 5809 5807 5806 5807 5807 5807
5772 5768 5768 5767 5767 5771 5771 5771 5771 5775 5779 5780 5775 5781 5786 5788 5790 5793 5796 5797 5799 5800 5801 5803 5804 5805 5804 5802 5801 5802 5802 5803
5757 5758 5755 5753 5754 5754 5757 5758 5759 5760 5764 5766 5767 5766 5770 5777 5782 5785 5786 5788 5790 5792 5793 5796 5797 5798 5800 5799 5796 5796 5797 5798
5741 5740 5740 5740 5740 5739 5739 5743 5745 5746 5749 5753 5756 5759 5756 5759 5768 5773 5776 5778 5781 5784 5785 5786 5789 5791 5793 5793 5791 5790 5792 5793
5725 5722 5719 5719 5722 5722 5723 5724 5727 5729 5732 5736 5742 5747 5744 5741 5749 5758 5763 5769 5772 5775 5777 5779 5780 5781 5785 5787 5786 5785 5786 5788
5705 5702 5698 5694 5695 5699 5701 5704 5707 5712 5715 5720 5725 5730 5716 5716 5732 5740 5748 5757 5762 5764 5766 5769 5772 5774 5776 5778 5780 5780 5779 5780
5682 5678 5675 5672 5668 5669 5673 5677 5683 5690 5695 5701 5706 5714 5714 5720 5718 5722 5733 5744 5748 5754 5757 5759 5762 5763 5767 5769 5772 5773 5774 5773
5668 5665 5660 5655 5651 5652 5653 5653 5658 5664 5671 5681 5688 5695 5696 5702 5682 5710 5724 5732 5736 5741 5745 5748 5752 5754 5757 5759 5763 5766 5766 5767
5655 5651 5645 5641 5637 5635 5634 5636 5638 5639 5645 5657 5669 5676 5681 5687 5696 5705 5710 5715 5724 5729 5731 5737 5738 5746 5747 5753 5754 5756 5758 5761
5642 5636 5631 5629 5624 5619 5616 5615 5615 5619 5623 5631 5644 5655 5665 5672 5680 5688 5693 5700 5706 5711 5717 5722 5727 5731 5737 5742 5745 5746 5748 5752
5629 5623 5620 5616 5609 5602 5598 5593 5591 5594 5600 5606 5616 5631 5646 5658 5666 5673 5682 5658 5680 5695 5703 5711 5715 5719 5724 5728 5734 5736 5740 5740
5620 5614 5607 5601 5595 5589 5577 5568 5568 5569 5575 5585 5592 5609 5628 5643 5653 5660 5666 5671 5645 5670 5683 5695 5699 5709 5713 5716 5720 5724 5727 5729
5610 5606 5600 5592 5586 5572 5560 5548 5547 5546 5555 5565 5572 5590 5610 5625 5637 5645 5655 5656 5648 5656 5661 5678 5685 5694 5701 5705 5708 5711 5715 5717